Barcelona, Spain

1:05 AM CEST on June 23, 2017 (GMT +0200)
El Prat

Weather History for LEBL - September, 2013

Change the Weather History Date:

Saturday, September 14, 2013

  Actual Average Record
Temperature  
Mean Temperature 72 °F -  
Max Temperature 79 °F 72 °F 82 °F (2011)
Min Temperature 64 °F 59 °F 59 °F (2002)
Cooling Degree Days 6    
Growing Degree Days 22 (Base 50)    
Moisture  
Dew Point 65 °F    
Average Humidity 76    
Maximum Humidity 94    
Minimum Humidity 65    
Precipitation  
Precipitation 0.00 in 0.11 in - ()
Sea Level Pressure  
Sea Level Pressure 30.08 in    
Wind  
Wind Speed 10 mph ()    
Max Wind Speed 25 mph    
Max Gust Speed 21 mph    
Visibility 6.7 miles    
Events      
Averages and records for this station are not official NWS values.
T = Trace of Precipitation, MM = Missing Value Source: Averaged Metar Reports

Daily Weather History Graph

Daily Weather History Graph

Search for Another Location

Airport or City:

Trip Planner

Search our weather history database for the weather conditions in past years. The results will help you decide how hot, cold, wet, or windy it might be!

Date:

Astronomy

Sep. 14, 2013 Rise Set
Actual Time 7:31 AM CEST 8:02 PM CEST
Civil Twilight 7:03 AM CEST 8:30 PM CEST
Nautical Twilight 6:30 AM CEST 9:02 PM CEST
Astronomical Twilight 5:56 AM CEST 9:36 PM CEST
Moon 4:33 PM CEST (9/14) 1:43 AM CEST (9/14)
Length of Visible Light 13h 26m
Length of Day
12h 31m
Waxing Gibbous, 69% of the Moon is Illuminated
Sep 14
Waxing Gibbous
Sep 19
Full
Sep 27
Last Quarter
Oct 5
New
Oct 12
First Quarter

Hourly Weather History & Observations

Time (CEST) Temp. Dew Point Humidity Pressure Visibility Wind Dir Wind Speed Gust Speed Precip Events Conditions
12:00 AM 69.8 °F 62.6 °F 78% 30.18 in 6.2 mi NNW 5.8 mph - N/A   Scattered Clouds
12:30 AM 68.0 °F 62.6 °F 83% 30.18 in 6.2 mi NW 5.8 mph - N/A   Scattered Clouds
1:00 AM 68.0 °F 62.6 °F 83% 30.18 in 6.2 mi NW 6.9 mph - N/A   Scattered Clouds
1:30 AM 68.0 °F 62.6 °F 83% 30.18 in 6.2 mi NW 6.9 mph - N/A   Partly Cloudy
2:00 AM 68 °F 67 °F 94% 30.18 in 11 mi North 6.9 mph - -  
2:00 AM 68.0 °F 62.6 °F 83% 30.18 in 6.2 mi NW 6.9 mph - N/A   Partly Cloudy
3:00 AM 66.2 °F 62.6 °F 88% 30.18 in 6.2 mi NW 9.2 mph - N/A   Partly Cloudy
4:00 AM 66.2 °F 60.8 °F 83% 30.15 in 6.2 mi NNW 8.1 mph - N/A   Partly Cloudy
4:30 AM 66.2 °F 60.8 °F 83% 30.15 in 6.2 mi NNW 8.1 mph - N/A   Partly Cloudy
5:00 AM 66.2 °F 60.8 °F 83% 30.12 in 6.2 mi NW 8.1 mph - N/A   Partly Cloudy
5:30 AM 64.4 °F 60.8 °F 88% 30.12 in 6.2 mi NNW 6.9 mph - N/A   Partly Cloudy
6:00 AM 64.4 °F 60.8 °F 88% 30.12 in 6.2 mi NW 8.1 mph - N/A   Partly Cloudy
6:30 AM 64.4 °F 60.8 °F 88% 30.12 in 6.2 mi NW 9.2 mph - N/A   Partly Cloudy
7:00 AM 64.4 °F 60.8 °F 88% 30.12 in 6.2 mi NNW 8.1 mph - N/A   Partly Cloudy
7:30 AM 64.4 °F 60.8 °F 88% 30.12 in 6.2 mi NW 9.2 mph - N/A   Partly Cloudy
8:00 AM 65 °F 63 °F 91% 30.14 in 8 mi North 10.4 mph - -   Scattered Clouds
8:00 AM 64.4 °F 60.8 °F 88% 30.12 in 6.2 mi NW 8.1 mph - N/A   Partly Cloudy
8:30 AM 66.2 °F 60.8 °F 83% 30.12 in 6.2 mi NNW 9.2 mph 20.7 mph N/A   Partly Cloudy
9:00 AM 66.2 °F 60.8 °F 83% 30.12 in 6.2 mi NNW 6.9 mph - N/A   Partly Cloudy
9:30 AM 69.8 °F 62.6 °F 78% 30.12 in 6.2 mi NW 5.8 mph - N/A   Partly Cloudy
10:00 AM 71.6 °F 62.6 °F 73% 30.12 in 6.2 mi NW 4.6 mph - N/A   Partly Cloudy
10:30 AM 73.4 °F 64.4 °F 73% 30.12 in 6.2 mi WNW 3.5 mph - N/A   Partly Cloudy
11:00 AM 77.0 °F 66.2 °F 69% 30.12 in 6.2 mi SW 11.5 mph - N/A   Partly Cloudy
11:30 AM 77.0 °F 66.2 °F 69% 30.12 in 6.2 mi SSW 13.8 mph - N/A   Partly Cloudy
12:00 PM 77.0 °F 66.2 °F 69% 30.09 in 6.2 mi SW 15.0 mph - N/A   Partly Cloudy
12:30 PM 77.0 °F 66.2 °F 69% 30.09 in 6.2 mi SW 17.3 mph - N/A   Partly Cloudy
1:00 PM 78.8 °F 66.2 °F 65% 30.09 in 6.2 mi SW 19.6 mph - N/A   Partly Cloudy
1:30 PM 77.0 °F 66.2 °F 69% 30.06 in 6.2 mi SSW 18.4 mph - N/A   Partly Cloudy
2:00 PM 79 °F 70 °F 68% 30.08 in 13 mi SW 18.4 mph - -   Scattered Clouds
2:00 PM 78.8 °F 66.2 °F 65% 30.06 in 6.2 mi SW 19.6 mph - N/A   Partly Cloudy
2:30 PM 78.8 °F 68.0 °F 69% 30.06 in 6.2 mi SSW 21.9 mph - N/A   Partly Cloudy
3:00 PM 78.8 °F 68.0 °F 69% 30.04 in 6.2 mi SW 20.7 mph - N/A   Partly Cloudy
3:30 PM 78.8 °F 66.2 °F 65% 30.04 in 6.2 mi SW 24.2 mph - N/A   Partly Cloudy
4:00 PM 78.8 °F 68.0 °F 69% 30.01 in 6.2 mi SW 24.2 mph - N/A   Partly Cloudy
4:30 PM 77.0 °F 66.2 °F 69% 30.01 in 6.2 mi SW 25.3 mph - N/A   Partly Cloudy
5:00 PM 78.8 °F 68.0 °F 69% 30.01 in 6.2 mi SW 23.0 mph - N/A   Partly Cloudy
5:30 PM 77.0 °F 66.2 °F 69% 30.01 in 6.2 mi SW 20.7 mph - N/A   Scattered Clouds
6:00 PM 77.0 °F 66.2 °F 69% 30.01 in 6.2 mi SW 17.3 mph - N/A   Scattered Clouds
6:30 PM 77.0 °F 66.2 °F 69% 30.01 in 6.2 mi SW 19.6 mph - N/A   Scattered Clouds
7:00 PM 75.2 °F 66.2 °F 73% 30.01 in 6.2 mi SW 20.7 mph - N/A   Scattered Clouds
7:30 PM 75.2 °F 66.2 °F 73% 29.98 in 6.2 mi SW 17.3 mph - N/A   Scattered Clouds
8:00 PM 75 °F 68 °F 73% 29.99 in 17 mi WSW 16.1 mph - -   Partly Cloudy
8:00 PM 75.2 °F 66.2 °F 73% 29.98 in 6.2 mi SW 17.3 mph - N/A   Scattered Clouds
8:30 PM 75.2 °F 64.4 °F 69% 29.98 in 6.2 mi WSW 16.1 mph - N/A   Scattered Clouds
9:00 PM 75.2 °F 64.4 °F 69% 29.98 in 6.2 mi WSW 12.7 mph - N/A   Partly Cloudy
9:30 PM 75.2 °F 64.4 °F 69% 29.98 in 6.2 mi WSW 11.5 mph - N/A   Partly Cloudy
10:00 PM 75.2 °F 66.2 °F 73% 30.01 in 6.2 mi SW 17.3 mph - N/A   Partly Cloudy
10:30 PM 75.2 °F 66.2 °F 73% 30.01 in 6.2 mi WSW 18.4 mph - N/A   Partly Cloudy
11:00 PM 75.2 °F 66.2 °F 73% 30.01 in 6.2 mi WSW 17.3 mph - N/A   Scattered Clouds
11:30 PM 75.2 °F 66.2 °F 73% 30.01 in 6.2 mi WSW 18.4 mph - N/A   Scattered Clouds